Kiana, AK

3:37 PM AKDT on July 27, 2017 (GMT -0800)
Baker Memorial

Weather History for PAIK - June, 2013

Change the Weather History Date:

Thursday, June 13, 2013

  Actual Average (PASK) Record (PASK)
Temperature  
Mean Temperature 66 °F -  
Max Temperature 68 °F 56 °F 78 °F (2013)
Min Temperature 53 °F 40 °F 32 °F (2012)
Cooling Degree Days 1    
Growing Degree Days 16 (Base 50)    
Moisture  
Dew Point 41 °F    
Average Humidity 41    
Maximum Humidity 72    
Minimum Humidity 21    
Precipitation  
Precipitation 0.00 in - - ()
Sea Level Pressure  
Sea Level Pressure 30.19 in    
Wind  
Wind Speed 5 mph (SSE)    
Max Wind Speed 10 mph    
Max Gust Speed 20 mph    
Visibility 10 miles    
Events      
Averages and records for this station are not official NWS values.
T = Trace of Precipitation, MM = Missing Value Source: NWS Daily Summary

Daily Weather History Graph

Daily Weather History Graph

Search for Another Location

Airport or City:

Trip Planner

Search our weather history database for the weather conditions in past years. The results will help you decide how hot, cold, wet, or windy it might be!

Date:

Astronomy

Jun. 13, 2013 Rise Set
Actual Time 3:14 AM AKDT 2:09 AM AKDT
Civil Twilight Sun does not set Sun does not set
Nautical Twilight Sun does not set Sun does not set
Astronomical Twilight Sun does not set Sun does not set
Moon 10:52 AM AKDT (6/13) 2:09 AM AKDT (6/13)
Length of Visible Light 24h 00m
Length of Day
22h 55m
Waxing Crescent, 23% of the Moon is Illuminated
Jun 13
Waxing Crescent
Jun 16
First Quarter
Jun 23
Full
Jun 29
Last Quarter
Jul 7
New

Hourly Weather History & Observations

Time (AKDT) Temp. Dew Point Humidity Pressure Visibility Wind Dir Wind Speed Gust Speed Precip Events Conditions
12:01 AM 66.0 °F 44.1 °F 45% 30.18 in 10.0 mi West 4.6 mph - N/A   Clear
1:01 AM 62.1 °F 45.0 °F 53% 30.19 in 10.0 mi NNW 4.6 mph - N/A   Clear
2:01 AM 60.1 °F 43.0 °F 53% 30.19 in 10.0 mi Variable 3.5 mph - N/A   Clear
3:01 AM 55.0 °F 43.0 °F 64% 30.19 in 10.0 mi North 6.9 mph - N/A   Clear
4:01 AM 54.0 °F 43.0 °F 66% 30.20 in 10.0 mi North 6.9 mph - N/A   Clear
5:01 AM 53.1 °F 43.0 °F 69% 30.21 in 10.0 mi Calm Calm - N/A   Clear
6:01 AM 54.0 °F 44.1 °F 69% 30.21 in 10.0 mi NE 4.6 mph - N/A   Clear
7:01 AM 55.0 °F 46.0 °F 72% 30.21 in 10.0 mi Calm Calm - N/A   Clear
8:01 AM 60.1 °F 46.9 °F 62% 30.21 in 10.0 mi Calm Calm - N/A   Clear
9:01 AM 62.1 °F 46.0 °F 56% 30.22 in 10.0 mi Variable 3.5 mph - N/A   Clear
10:01 AM 66.0 °F 46.0 °F 48% 30.21 in 10.0 mi East 4.6 mph - N/A   Clear
11:01 AM 72.0 °F 46.0 °F 40% 30.21 in 10.0 mi East 6.9 mph - N/A   Clear
12:01 PM 73.9 °F 46.9 °F 38% 30.21 in 10.0 mi ESE 6.9 mph - N/A   Clear
1:01 PM 77.0 °F 42.1 °F 29% 30.20 in 10.0 mi South 9.2 mph - N/A   Clear
2:01 PM 78.1 °F 37.9 °F 24% 30.20 in 10.0 mi South 10.4 mph - N/A   Clear
3:01 PM 78.1 °F 37.0 °F 23% 30.20 in 10.0 mi South 10.4 mph 18.4 mph N/A   Partly Cloudy
4:01 PM 79.0 °F 36.0 °F 21% 30.19 in 10.0 mi South 10.4 mph 19.6 mph N/A   Scattered Clouds
5:01 PM 79.0 °F 37.0 °F 22% 30.18 in 10.0 mi SSW 10.4 mph 19.6 mph N/A   Clear
6:01 PM 79.0 °F 37.9 °F 23% 30.18 in 8.0 mi South 8.1 mph - N/A   Partly Cloudy
7:01 PM 78.1 °F 36.0 °F 22% 30.17 in 10.0 mi South 6.9 mph - N/A   Mostly Cloudy
8:01 PM 79.0 °F 36.0 °F 21% 30.16 in 10.0 mi South 6.9 mph - N/A   Scattered Clouds
9:01 PM 78.1 °F 37.0 °F 23% 30.15 in 9.0 mi South 4.6 mph - N/A   Scattered Clouds
10:01 PM 77.0 °F 36.0 °F 23% 30.15 in 10.0 mi Variable 4.6 mph - N/A   Clear
11:01 PM 75.9 °F 39.0 °F 26% 30.14 in 6.0 mi Calm Calm - N/A   Haze